Vertical_Velocity
5 1 -1 -2 -1 3 0 -1 1 -1 1 -3 -2 0 -3 -2 1 -1 -1 -0 -0 1 -1 -1 -4 1 2 1 -2 -2 -0 0 -1 -0 -1 -1 -1 -1 -1 -0 -1 -1 -2 -1 -3 -2 -2 -3 0
-2 2 5 -1 -1 2 0 0 0 -3 -4 -2 -3 -4 -3 -2 -0 0 0 -1 -1 -2 -2 1 -1 -1 -1 1 0 1 -1 -1 -0 0 -1 -1 -1 -2 -1 -1 -3 -1 1 -2 -2 -3 -2 -2 -4
-7 -2 -7 3 4 2 2 0 4 1 0 -0 1 1 -2 -0 -1 -1 -2 -3 -0 1 2 -0 -2 -2 -1 -1 -2 -0 1 1 -0 -1 -0 0 -2 0 1 -1 1 -0 -2 -2 -1 -1 -1 -1 -3
7 9 8 -0 0 -2 -1 -2 -0 -1 -1 -3 -3 -1 0 -1 -2 0 1 -1 -2 0 0 -2 -1 -2 1 1 1 -2 -0 0 -1 1 2 -0 1 -0 -1 -0 1 0 -0 -2 0 -1 -1 -0 -1
-0 -1 -1 -1 0 -0 -3 0 0 1 1 0 2 1 -1 0 2 2 0 1 2 1 -0 -1 1 1 2 2 1 -1 -1 -1 -0 -1 0 2 -1 -2 -1 -1 -0 -1 -2 1 -1 -1 -1 1 -0
-0 -2 -1 -2 -1 1 1 1 0 1 1 3 2 -1 -2 -1 -1 -1 -1 -1 -3 -2 -1 0 1 2 0 -0 -1 1 1 0 -0 -0 -1 -2 -1 1 -2 -2 -1 -1 -1 0 -1 2 -1 0 -0
-2 -1 1 3 3 1 -1 -0 -0 0 1 2 1 -1 -1 -1 -1 -1 -1 -2 -2 0 2 1 0 -1 -2 -1 -2 -1 0 -0 -0 -1 1 1 0 -0 -0 -0 0 -0 -1 0 0 -1 -0 1 -0
-0 -0 -1 -1 -2 -0 -0 0 1 3 1 0 -2 -4 -3 -0 -0 -0 1 2 2 1 -1 -0 -0 -1 -1 -1 -1 -2 -2 -1 -0 -1 -1 -1 -2 1 0 1 -1 -2 -2 -1 -0 -1 0 -1 -1
1 0 -0 -0 1 2 2 1 1 1 1 0 -2 -2 -1 1 0 0 -0 -0 1 0 0 -1 -1 -1 -0 -1 -0 -2 -1 -1 -2 -0 -1 -1 -1 1 -0 -1 1 -0 -0 -1 -2 -2 -2 -1 -1
0 -0 -0 0 -0 -1 -1 -0 0 0 1 1 -1 -1 -1 -1 -1 0 -0 -0 -1 -1 -1 -1 -1 0 0 0 -1 0 1 -0 -1 -2 -2 -1 1 -1 -1 -1 -2 -3 -2 -2 -3 -4 -3 -1 -2
3 3 2 0 1 1 1 1 1 1 -0 -0 -1 -0 -1 -2 -2 -1 -1 -1 -2 -3 -2 0 -1 -0 -0 -1 0 -0 -1 -1 -1 -0 1 2 -1 -1 -1 -2 -2 -1 -3 -1 1 -1 -3 -4 -5
0 -0 -0 -1 -1 -1 -1 -1 -2 -1 0 1 -2 -2 -1 -2 -2 -0 1 1 0 -0 -1 -1 -1 -1 -0 1 -0 -1 -1 -1 -1 -0 2 -1 0 -1 -3 -3 -2 -1 1 -1 -5 -2 -2 -3 -3
1 -1 -1 -1 -1 -2 -0 -1 -0 0 0 -1 -1 -0 -1 -2 -2 -3 -2 -2 -2 -1 -0 -0 -1 -1 0 -1 -1 -0 1 0 1 1 1 2 1 1 2 2 0 -0 -2 -6 -2 -5 -2 -4 -4
1 0 -0 -0 -1 -1 0 2 2 2 1 -0 -1 1 -1 -2 -2 -1 -1 -1 -1 -1 -2 -1 -1 -0 -1 -0 -0 -0 -1 -1 -0 -0 1 -2 -2 -1 -1 0 -1 -3 -6 -5 -10 -8 -7 -5 -7
-2 0 1 0 -0 -1 -1 -1 -1 -2 -1 0 1 -1 -1 -2 -1 -0 -1 -1 -1 -2 -1 0 0 -0 -1 -1 -1 -1 -0 0 0 -2 -4 -4 -4 -3 -6 -8 -4 -8 -3 -6 -6 -4 -8 -3 -0
0 -0 -0 0 0 0 1 -1 0 -0 -2 -3 -2 -2 0 1 -0 -0 -1 -0 -1 -2 -1 0 -1 0 0 -1 -1 -3 -2 -1 -2 -3 -3 -6 -9 -10 -3 -8 -8 -5 -1 -3 -5 -1 -0 -2 -4
-1 1 -1 -0 1 0 -2 -1 1 2 1 -1 -1 -1 1 -0 -2 -1 -0 -0 -2 -1 -1 1 -0 0 0 -1 -2 -2 -2 -2 -3 -6 -8 -9 -9 -11 -11 -9 -6 -8 -4 -1 -6 0 -9 -3 -2
-0 -0 1 1 -0 -0 -1 -4 1 -0 2 3 2 -0 -0 -1 -0 -1 1 -1 -3 -3 -1 0 -1 -0 -2 -1 -1 -2 -5 -7 -9 -9 -8 -7 -7 -10 -8 -6 -7 -7 -1 1 -3 -3 9 -6 2
-1 -1 -1 -1 1 -1 -2 4 -8 -1 -2 -0 -0 -1 -1 -2 -0 -1 -1 -1 -3 -2 -1 -2 0 -0 1 -2 -2 -3 2 4 2 2 -2 -2 -5 -9 -7 -7 -5 -4 1 -1 -2 3 -2 3 -4
-1 -1 -1 -1 -4 -2 -6 11 -1 -4 -1 -2 -1 -2 0 -0 -1 -2 -2 -1 -3 -2 -2 -2 -2 -1 -1 -2 -3 -2 -1 3 -1 -4 -7 -10 -7 -11 -11 -11 -7 -6 -5 2 -5 -10 -3 1 0
-0 1 0 -1 -4 -2 -4 3 4 -3 -2 -3 -1 -1 -0 -1 -2 -2 -2 -2 -2 -2 -2 -1 -1 -2 -2 -2 -2 -3 -6 -8 -9 -5 1 -2 -4 -3 -6 -4 -6 -5 -6 -1 -1 -3 -5 4 6
-1 -1 -1 -0 -4 -4 7 -29 18 4 -1 -1 -0 0 -0 -1 -1 -2 -3 -3 -2 -2 -2 -1 -1 -2 -2 -3 -6 -6 -8 -4 -1 -4 -1 -0 -2 -2 -6 -9 -8 -6 -2 -3 -1 2 -1 -2 5
3 -1 -1 -1 -2 -6 13 -20 11 4 1 -1 -0 1 1 0 -0 -1 -2 -2 -1 -2 -1 -3 -3 -1 -3 -5 -4 -4 -0 -3 -1 -4 -1 -3 -3 -5 -4 -0 -0 -4 -3 -3 -3 -0 2 -1 1
1 1 -2 -2 2 -10 5 -2 12 -1 0 -2 -1 -0 1 -0 -0 -1 -1 -0 -0 -2 -2 -2 -4 -3 -3 -3 -3 -3 -4 -1 -1 -4 -3 -3 -1 -2 -4 -1 -2 -3 -2 -3 -2 -0 1 0 1
0 0 -3 -10 -3 -2 -0 -10 16 -2 -0 -1 -2 -2 -0 0 -1 -1 0 -1 -1 -2 -2 -2 -2 -3 -3 -2 -2 -3 -3 -4 -7 -7 -5 -3 1 -1 -2 -2 -0 -3 -0 -3 -4 -1 1 -1 2
-1 2 4 -8 -6 -2 0 -9 6 -1 0 0 -1 -1 -0 -0 -0 -0 -1 -1 -1 -2 -1 -1 -0 -2 -0 -2 -1 -1 -2 -4 -1 -5 -7 -2 -4 -6 -1 -2 -1 -1 1 -0 -3 0 1 0 1
5 -3 3 -3 -2 -5 -3 4 -3 1 -2 -1 -3 -1 -1 -1 -1 -2 -2 -0 -1 -1 -0 -0 -2 -1 -2 -1 -1 -2 -6 -1 -2 -1 -4 -3 -4 -5 -4 -2 -2 -1 1 1 -1 0 1 -0 1
2 3 -2 3 -5 -7 -5 3 -1 -1 -1 -0 -4 -1 1 -1 -1 -1 1 -0 -2 -0 -0 -1 1 0 1 1 -2 -4 -1 -3 -6 -4 -3 -3 -3 -6 -2 -1 -1 -3 -2 -2 2 -0 -0 2 1
-1 -2 -0 2 -5 -1 -4 -6 2 0 1 -4 -4 -3 -3 -2 -2 -2 -1 -1 -0 -0 -0 -0 -1 -2 -1 -3 -4 -2 -0 -0 0 2 -0 0 -1 1 0 -2 1 -2 -2 -4 -2 0 1 2 3
-0 -1 1 -3 0 -1 -2 -5 8 -2 -0 -4 -2 -2 -0 0 -1 0 -0 1 -0 1 -1 -3 -2 -1 -3 -4 -2 -3 -3 -2 -1 -1 0 -1 -3 4 2 1 1 0 -1 -1 -4 -1 -2 0 4
Height
5830 5835 5838 5840 5842 5841 5843 5847 5848 5849 5849 5848 5847 5847 5848 5847 5846 5849 5847 5845 5844 5843 5843 5842 5842 5840 5838 5837 5838 5837 5836 5834 5833 5831 5830 5828 5827 5825 5823 5822 5821 5821 5820 5819 5817 5816 5816 5815 5814
5834 5835 5837 5839 5842 5843 5845 5847 5847 5847 5846 5846 5846 5846 5845 5846 5845 5845 5845 5845 5844 5842 5842 5840 5840 5838 5836 5835 5835 5833 5832 5830 5828 5827 5825 5824 5822 5821 5819 5817 5816 5815 5814 5813 5812 5811 5810 5809 5808
5834 5836 5839 5840 5841 5843 5845 5846 5846 5845 5845 5844 5844 5844 5844 5844 5844 5844 5844 5843 5841 5840 5839 5838 5837 5835 5834 5833 5831 5829 5827 5826 5824 5822 5821 5820 5818 5816 5815 5813 5811 5809 5808 5807 5805 5804 5803 5802 5802
5835 5838 5840 5842 5843 5844 5845 5845 5844 5844 5844 5843 5844 5844 5844 5842 5841 5841 5840 5840 5839 5838 5836 5835 5834 5832 5831 5829 5827 5825 5823 5821 5819 5818 5816 5815 5813 5811 5809 5808 5806 5804 5803 5801 5800 5797 5796 5795 5794
5838 5840 5841 5842 5843 5844 5844 5843 5843 5843 5843 5844 5845 5844 5843 5840 5840 5840 5839 5838 5836 5835 5833 5832 5831 5829 5827 5825 5822 5820 5819 5817 5815 5813 5812 5810 5808 5806 5804 5802 5800 5798 5796 5794 5792 5792 5790 5789 5787
5839 5840 5841 5841 5841 5842 5842 5843 5843 5844 5843 5844 5844 5841 5839 5838 5838 5838 5837 5835 5834 5832 5831 5829 5827 5824 5821 5819 5818 5816 5814 5812 5810 5808 5806 5804 5801 5799 5797 5795 5792 5790 5789 5787 5785 5784 5782 5781 5780
5838 5839 5839 5840 5840 5840 5841 5842 5843 5842 5842 5841 5840 5838 5837 5837 5836 5835 5834 5833 5832 5830 5827 5824 5822 5819 5817 5815 5814 5812 5809 5807 5804 5802 5799 5796 5794 5792 5789 5788 5785 5783 5781 5778 5776 5774 5773 5772 5771
5838 5839 5839 5840 5840 5841 5840 5841 5840 5840 5840 5839 5838 5837 5835 5834 5833 5832 5831 5830 5828 5826 5823 5820 5818 5816 5813 5811 5808 5806 5802 5800 5797 5795 5792 5789 5787 5785 5782 5779 5776 5775 5771 5769 5767 5765 5763 5761 5760
5837 5838 5838 5839 5839 5840 5839 5839 5839 5839 5838 5837 5835 5833 5832 5831 5830 5829 5828 5826 5824 5821 5819 5817 5814 5811 5808 5805 5802 5799 5796 5793 5790 5787 5785 5782 5779 5776 5773 5770 5768 5764 5761 5759 5756 5754 5752 5750 5747
5837 5838 5838 5838 5838 5838 5838 5838 5837 5836 5835 5833 5832 5831 5830 5828 5826 5825 5823 5821 5819 5816 5813 5810 5807 5804 5801 5798 5795 5793 5790 5786 5783 5780 5777 5774 5770 5767 5764 5760 5756 5753 5749 5746 5743 5739 5736 5734 5732
5836 5836 5836 5836 5835 5835 5835 5834 5834 5833 5833 5831 5830 5828 5827 5825 5823 5820 5818 5816 5813 5809 5807 5803 5800 5797 5794 5791 5788 5785 5782 5779 5775 5772 5768 5764 5761 5757 5753 5749 5744 5740 5736 5732 5728 5725 5721 5718 5716
5835 5834 5834 5834 5833 5833 5833 5832 5832 5831 5830 5829 5827 5825 5823 5821 5818 5815 5812 5809 5806 5803 5800 5797 5794 5790 5787 5784 5780 5777 5773 5770 5767 5763 5760 5755 5751 5746 5741 5736 5731 5726 5721 5718 5714 5709 5704 5701 5697
5832 5832 5832 5832 5831 5831 5830 5830 5829 5828 5827 5826 5823 5821 5818 5816 5813 5810 5808 5804 5801 5798 5795 5791 5788 5784 5780 5777 5773 5770 5766 5761 5757 5754 5749 5745 5741 5736 5731 5724 5718 5712 5707 5702 5697 5691 5686 5680 5675
5829 5829 5828 5828 5828 5827 5827 5826 5825 5825 5823 5822 5819 5816 5813 5811 5808 5805 5802 5799 5796 5793 5790 5786 5782 5778 5774 5770 5766 5762 5758 5753 5748 5743 5739 5735 5730 5724 5718 5712 5705 5699 5691 5684 5678 5670 5663 5656 5650
5827 5826 5825 5824 5824 5824 5823 5824 5823 5821 5819 5818 5815 5812 5809 5806 5803 5800 5797 5795 5791 5788 5784 5779 5775 5771 5767 5763 5759 5754 5749 5744 5739 5734 5729 5723 5716 5710 5704 5698 5690 5680 5670 5662 5651 5641 5634 5627 5621
5824 5823 5822 5821 5821 5820 5819 5819 5817 5816 5815 5813 5809 5807 5804 5801 5798 5795 5791 5788 5784 5781 5777 5772 5767 5763 5759 5755 5750 5744 5738 5733 5728 5722 5715 5709 5702 5695 5686 5677 5667 5657 5645 5632 5621 5611 5603 5596 5590
5820 5819 5818 5817 5816 5816 5815 5813 5812 5809 5808 5806 5803 5800 5798 5795 5792 5789 5786 5781 5777 5773 5769 5765 5760 5756 5751 5746 5740 5734 5728 5722 5716 5709 5702 5695 5687 5677 5668 5657 5645 5633 5621 5606 5594 5584 5573 5569 5564
5815 5814 5813 5812 5812 5810 5809 5808 5807 5804 5802 5799 5797 5794 5792 5789 5785 5782 5778 5774 5770 5766 5762 5758 5753 5747 5742 5736 5730 5724 5717 5709 5703 5697 5689 5679 5669 5659 5647 5635 5621 5606 5591 5577 5565 5555 5546 5541 5540
5811 5809 5808 5807 5805 5804 5802 5802 5799 5798 5796 5794 5791 5788 5785 5782 5778 5775 5771 5767 5763 5759 5754 5749 5743 5738 5733 5727 5721 5714 5708 5701 5693 5684 5674 5663 5652 5640 5628 5614 5599 5582 5566 5552 5540 5532 5528 5524 5519
5805 5804 5803 5802 5800 5797 5796 5796 5793 5791 5789 5788 5785 5782 5779 5775 5771 5768 5764 5760 5755 5751 5745 5740 5735 5729 5723 5716 5710 5703 5696 5688 5679 5670 5658 5646 5635 5621 5607 5591 5575 5558 5544 5532 5523 5516 5513 5509 5505
5799 5799 5797 5796 5793 5791 5790 5789 5787 5784 5782 5781 5778 5775 5772 5769 5765 5761 5757 5752 5747 5742 5736 5731 5725 5719 5712 5705 5698 5691 5683 5674 5665 5655 5643 5629 5615 5598 5582 5565 5549 5535 5523 5515 5508 5502 5497 5495 5492
5792 5792 5791 5789 5787 5785 5782 5782 5782 5778 5776 5774 5772 5769 5765 5762 5757 5753 5749 5743 5738 5733 5727 5721 5715 5708 5701 5695 5687 5679 5670 5662 5651 5640 5628 5614 5596 5577 5558 5543 5529 5517 5508 5500 5494 5489 5485 5482 5482
5788 5785 5783 5781 5779 5778 5777 5773 5777 5772 5770 5767 5765 5762 5758 5754 5750 5745 5740 5735 5730 5724 5718 5712 5704 5698 5691 5683 5675 5667 5657 5646 5636 5625 5612 5596 5577 5557 5539 5524 5512 5502 5494 5488 5482 5478 5475 5473 5472
5779 5778 5775 5773 5771 5770 5770 5767 5771 5766 5763 5760 5758 5755 5751 5746 5742 5737 5731 5726 5720 5714 5708 5701 5694 5687 5679 5671 5662 5653 5643 5633 5622 5610 5595 5579 5561 5541 5525 5511 5499 5490 5482 5477 5472 5469 5465 5464 5462
5771 5770 5767 5766 5764 5763 5762 5760 5764 5758 5755 5752 5749 5746 5742 5738 5733 5728 5722 5716 5710 5704 5697 5690 5682 5675 5667 5658 5649 5639 5629 5617 5605 5591 5577 5560 5542 5525 5511 5499 5489 5480 5472 5467 5463 5459 5456 5454 5453
5763 5762 5759 5754 5755 5755 5753 5753 5756 5751 5746 5742 5739 5736 5733 5729 5724 5718 5712 5706 5700 5694 5687 5679 5672 5664 5655 5646 5637 5626 5613 5601 5587 5573 5557 5539 5522 5509 5497 5487 5479 5472 5464 5458 5454 5450 5447 5445 5444
5756 5753 5751 5745 5745 5743 5746 5745 5747 5743 5738 5733 5730 5727 5724 5719 5714 5707 5702 5696 5690 5683 5676 5669 5661 5652 5643 5634 5623 5612 5600 5587 5573 5556 5537 5520 5506 5495 5485 5475 5468 5462 5456 5450 5445 5441 5438 5436 5435
5746 5745 5742 5739 5732 5732 5734 5735 5738 5734 5729 5724 5720 5717 5714 5709 5703 5697 5692 5686 5679 5672 5665 5657 5649 5640 5630 5621 5610 5599 5586 5572 5555 5538 5520 5503 5491 5481 5470 5462 5455 5449 5444 5439 5435 5432 5429 5427 5426
5736 5735 5734 5730 5726 5723 5720 5728 5728 5725 5719 5713 5710 5707 5703 5699 5692 5687 5681 5675 5668 5661 5653 5645 5636 5627 5618 5608 5596 5584 5570 5555 5538 5520 5502 5487 5478 5466 5456 5447 5441 5434 5429 5425 5423 5421 5419 5418 5417
5725 5725 5724 5720 5718 5715 5711 5716 5717 5712 5708 5703 5700 5696 5692 5687 5681 5676 5669 5663 5656 5649 5641 5632 5624 5615 5605 5594 5582 5569 5555 5540 5522 5503 5486 5473 5463 5451 5440 5431 5423 5416 5411 5408 5407 5407 5407 5407 5407